Flag for U.S.A. Weather past 2 weeks in Grand Junction, Colorado, U.S.A.

Now
77 °F

Sunny.


Feels Like: 76 °F
Forecast: 57 / 91 °F
Wind: 8 mph from Northwest

Location: Walker Field

Current Time: Jul 28, 2015 at 9:23:27 PM

Latest Report: Jul 28, 2015 at 8:53 PM


Visibility: 10 mi

Pressure: 29.87 "Hg (25.45 "Hg at 1398m altitude)

Humidity: 14%

Dew point: 25 °F

Location of Grand JunctionLocation

Historic Weather in Grand Junction — Graph

°F

Grand Junction temperature yesterday

Maximum temperature yesterday: 95 °F (at 3:53 PM)
Minimum temperature yesterday: 70 °F (at 4:53 AM)
Average temperature yesterday: 81 °F

Past Weeks' High & Low Weather Summary

 TemperatureHumidityPressure
High95 °F (Jul 27, 3:53 PM)96% (Jul 21, 9:53 AM)30.14 "Hg (Jul 21, 9:53 AM)
Low54 °F (Jul 28, 4:53 AM)8% (Jul 27, 5:53 PM)29.62 "Hg (Jul 27, 3:53 PM)
Average74 °F44%29.88 "Hg
* Reported Jul 13 7:53 PM — Jul 28 7:53 PM, Grand Junction, Weather by CustomWeather, © 2015

Note: Actual official high and low records may vary slightly from our data, if they occured in-between our weather recording intervals... More about our weather records

Advertising

Grand Junction weather history for previous 24 hours

 ConditionsComfort  
Time TempWeatherWind HumidityBarometerVisibility
7:53 PM
Tue, Jul 28
84 °FSunny.9 mph11%29.85 "Hg10 mi
6:53 PM87 °FSunny.15 mph9%29.85 "Hg10 mi
5:53 PM89 °FSunny.15 mph9%29.86 "Hg10 mi
4:53 PM88 °FSunny.7 mph10%29.89 "Hg10 mi
3:53 PM88 °FSunny.8 mph12%29.89 "Hg10 mi
2:53 PM87 °FSunny.8 mph13%29.90 "Hg10 mi
1:53 PM85 °FSunny.7 mph14%29.92 "Hg10 mi
12:53 PM80 °FSunny.3 mph18%29.94 "Hg10 mi
11:53 AM81 °FSunny.5 mph18%29.95 "Hg10 mi
10:53 AM77 °FSunny.7 mph21%29.94 "Hg10 mi
9:53 AM75 °FSunny.6 mph24%29.98 "Hg10 mi
8:53 AM71 °FSunny.No wind27%29.97 "Hg10 mi
7:53 AM68 °FSunny.No wind30%29.95 "Hg10 mi
6:53 AM60 °FClear.No wind33%29.93 "Hg10 mi
5:53 AM56 °FClear.5 mph37%29.91 "Hg10 mi
4:53 AM54 °FClear.No wind40%29.89 "Hg10 mi
3:53 AM57 °FClear.No wind36%29.85 "Hg10 mi
2:53 AM63 °FClear.7 mph29%29.83 "Hg10 mi
1:53 AM65 °FClear.5 mph31%29.81 "Hg10 mi
12:53 AM65 °FClear.5 mph32%29.80 "Hg10 mi
11:53 PM
Mon, Jul 27
71 °FClear.5 mph28%29.77 "Hg10 mi
10:53 PM78 °FClear.5 mph14%29.72 "Hg9 mi
9:53 PM71 °FClear.6 mph20%29.71 "Hg10 mi
Weather by CustomWeather, © 2015

See weather overviewHow to use our weather pages